Zurück zum Katalog

SL-12 DEB

AktivHEO
NORAD 25818·DEBRIS·🇷🇺 Russia

Gestartet Dec 27, 1989 von Baikonur Cosmodrome

Loading…

Nächste Überflüge (nächste 24 Stunden)

TLE

AktuellSource: Space-Track

Epoche: Sep 12, 2026, 19:53 UTC

1 25818U 89101Q   26255.82860808  .00077261  00000-0  66621-1 0  9998
2 25818  46.2912  42.1357 2633746 148.5365 359.9676  9.51726147819213

Verfolge SL-12 DEB in Echtzeit mit AllMySat

Download on the App Store